Location: *
(39.2167°N, 8.3833°E)
Time: 08:16:00
(UTC+00:00)

Daily predictions for brighter satellites

Satellite Brightness Start Highest point End
(mag) Time Altitude Azimuth Time Altitude Azimuth Time Altitude Azimuth
CZ-4C R/B 3.1 16:57:40 10° NNW 17:05:07 85° NE 17:13:29 10° SE
SL-4 R/B 1.9 17:06:55 10° NW 17:10:47 55° NE 17:14:20 10° ESE
H-2A R/B 2.9 17:06:59 10° S 17:10:51 84° W 17:14:46 10° NNW
COBE Rocket 4.1 17:07:05 10° NNE 17:12:12 61° E 17:17:11 10° S
Cosmos 1821 Rocket 4.0 17:09:40 10° N 17:15:45 67° E 17:21:53 10° SSE
OAO 3 Rocket 3.8 17:13:58 10° WSW 17:18:42 49° S 17:23:29 10° E
BREEZE M DEB (TANK) 3.5 17:17:41 10° NNW 17:19:39 20° NNE 17:23:04 10° E
Cosmos 2082 Rocket 4.0 17:18:03 10° NNE 17:20:08 12° NE 17:22:12 10° ENE
Meteor 2-10 4.3 17:16:15 10° SSE 17:21:01 41° E 17:25:45 10° NNE
Nadezhda 3 Rocket 4.1 17:15:02 10° S 17:21:17 87° W 17:27:39 10° N
USA 116 4.2 17:19:10 10° NE 17:22:00 28° E 17:24:58 10° SSE
COSMO-SKYMED 1 2.6 17:17:54 10° NNE 17:22:12 59° E 17:26:28 10° S
Cosmos 1703 4.3 17:19:41 10° NNE 17:23:00 25° ENE 17:26:16 10° SE
BREEZE-M DEB (TANK) 4.3 17:05:25 10° SW 17:23:28 62° SSE 17:27:53 10° ENE
COSMOS 2406 3.8 17:20:03 10° N 17:25:21 36° ENE 17:30:35 10° SE
Cosmos 1934 Rocket 4.2 17:20:45 10° N 17:26:56 52° E 17:33:06 10° SSE
Cosmos 1953 3.1 17:23:26 10° SSW 17:27:26 59° W 17:31:28 10° N
Abrixas rocket 2.3 17:25:32 10° SW 17:28:31 49° SE 17:31:00 14° ENE
Cosmos 1825 Rocket 3.8 17:26:13 10° NNW 17:30:35 73° W 17:34:57 10° S
YAOGAN 6 2.8 17:28:08 10° SSE 17:31:40 47° ENE 17:35:12 10° N
Cosmos 1953 Rocket 3.5 17:28:46 10° N 17:33:09 79° E 17:37:29 10° S
BREEZE-M DEB (TANK) 4.1 17:20:44 10° WNW 17:33:27 78° SW 17:36:47 10° SE
Cosmos 1844 Rocket 3.8 17:31:35 10° SW 17:37:01 47° WNW 17:42:27 10° NNE
FengYun 1-2 T 4.2 17:32:51 10° SSE 17:38:27 72° ENE 17:44:04 10° N
Envisat 3.2 17:40:46 10° S 17:45:50 77° WSW 17:50:57 10° NNW
Meteor 1-16 Rocket 4.3 17:41:25 10° S 17:47:02 83° W 17:52:30 10° N
Unknown 3.8 17:44:54 10° NNW 17:47:09 24° NNE 17:47:38 23° NE
BREEZE-M DEB (TANK) 2.7 17:43:25 10° SW 17:49:28 83° NNW 17:51:13 21° NE
OAO 2 Rocket 3.9 17:45:27 10° W 17:50:34 53° S 17:54:22 18° ESE
Cosmos 1908 3.2 17:48:11 10° S 17:52:02 62° E 17:55:54 10° NNE
Cosmos 1356 3.8 17:54:03 10° SSW 17:57:26 66° W 18:00:53 10° N
Cosmos 1461 4.5 17:55:12 10° N 17:58:01 18° NE 17:58:04 18° NE
Cosmos 2278 Rocket 2.2 17:52:39 10° S 17:58:13 62° ESE 18:03:49 10° NNE
Cosmos 1939 Rocket 3.3 17:54:57 11° SE 17:58:26 38° ENE 18:02:10 10° N
ATLAS 3B R/B 4.2 17:56:09 10° SE 17:58:13 14° ESE 17:58:13 14° ESE
Lacrosse 5 rocket 1.8 17:56:38 10° NW 18:00:23 57° SW 18:04:20 10° SSE
ASTEX 1 3.9 17:55:45 10° N 18:00:39 63° W 18:05:34 10° SSW
Cosmos 1812 Rocket 4.1 17:57:02 10° SSE 18:01:00 34° E 18:05:02 10° NNE
ATLAS 5 CENTAUR R/B 4.3 18:02:31 10° WNW 18:04:56 14° NW 18:07:30 10° N
DMSP B5D1-3 4.4 18:00:32 10° NNE 18:05:40 71° ESE 18:10:47 10° S
YAOGAN 1 2.8 18:06:15 10° S 18:10:33 72° WSW 18:14:53 10° NNW
Cosmos 1328 4.1 18:07:43 10° NNW 18:11:41 66° W 18:15:34 10° S
CENTAUR R/B 4.1 18:08:10 10° SSE 18:08:58 13° SE 18:08:58 13° SE
Cosmos 482 Debris 3.7 18:10:57 10° NW 18:15:26 76° NE 18:15:52 62° E
CSL-04 Rocket 4.2 18:15:12 10° S 18:20:41 63° WSW 18:26:10 10° NNW
CZ-4 R/B 3.0 18:17:30 10° SSW 18:21:22 38° W 18:25:18 10° NNW
USA 238 DEB 3.6 18:16:26 10° SSW 18:23:00 66° ESE 18:28:53 14° NE
USA 238 3.6 18:16:32 10° SSW 18:23:06 66° ESE 18:28:55 15° NE
Ariane Rocket 2.9 18:23:20 10° SSE 18:28:25 75° ENE 18:33:32 10° N
NOAA 11 4.1 18:23:05 10° SSE 18:28:33 89° ENE 18:34:01 10° NNW
Cosmos 1726 4.5 18:25:54 10° SW 18:28:58 25° WNW 18:32:02 10° NNW
Shenzhou-11 Module 3.5 18:28:02 10° WNW 18:29:46 28° NW 18:29:46 28° NW
Lacrosse 5 3.1 18:28:32 10° NNW 18:32:48 26° NNE 18:32:48 26° NNE
USA 234 4.0 18:33:44 30° SE 18:33:44 30° SE 18:38:57 10° S
CZ-2D R/B 3.7 18:32:37 10° S 18:36:24 59° W 18:40:13 10° NNW
Cosmos 1833 Rocket 2.5 18:37:29 10° NNW 18:43:06 71° ENE 18:44:18 54° SE
NOSS 3-2 (A) 3.2 18:43:10 10° SSW 18:48:49 82° ESE 18:51:19 38° NE
SL-4 R/B 4.1 18:47:31 10° W 18:49:59 17° SW 18:51:04 15° SSW
Cosmos 1459 Rocket 3.8 18:52:36 10° N 18:58:48 67° E 18:58:58 67° E
OAO 3 Rocket 3.9 18:57:12 10° W 19:01:26 46° SSW 19:01:26 46° SSW
Gbstr 26 Del rocket 4.3 18:56:58 10° NW 19:03:23 58° NNE 19:04:05 55° NE
H-2A R/B 3.4 19:06:53 29° N 19:06:53 29° N 19:09:34 10° N
Cosmos 2082 Rocket 2.2 18:59:31 10° NNW 19:04:38 67° NNE 19:04:38 67° NNE
NOSS 3-2 (C) 3.6 19:06:13 10° SSW 19:10:26 53° SSW 19:10:26 53° SSW
Cosmos 1802 Rocket 4.1 19:12:22 10° N 19:17:48 64° NNE 19:17:48 64° NNE
Cosmos 2173 Rocket 3.9 19:15:50 10° N 19:22:02 80° W 19:22:02 80° W
ADEOS Rocket 3.5 19:30:23 10° N 19:38:05 77° WNW 19:45:12 10° SSW
ATLAS 3B R/B 4.1 19:42:55 10° SSW 19:45:35 26° SW 19:45:35 26° SW
